Weather History for K6R6 - May, 2014

Change the Weather History Date:

Thursday, May 8, 2014

  Actual Average (KFST) Record (KFST)
Temperature  
Mean Temperature 86 °F -  
Max Temperature 98 °F 88 °F 100 °F (2011)
Min Temperature 75 °F 59 °F 53 °F (2008)
Cooling Degree Days 22    
Growing Degree Days 36 (Base 50)    
Moisture  
Dew Point 26 °F    
Average Humidity 15    
Maximum Humidity 49    
Minimum Humidity 6    
Precipitation  
Precipitation 0.00 in - - ()
Sea Level Pressure  
Sea Level Pressure 29.68 in    
Wind  
Wind Speed 12 mph (WNW)    
Max Wind Speed 22 mph    
Max Gust Speed 30 mph    
Averages and records for this station are not official NWS values.
T = Trace of Precipitation, MM = Missing Value Source: NWS Daily Summary

Daily Weather History Graph

Daily Weather History Graph

Search for Another Location

Airport or City:

Trip Planner

Search our weather history database for the weather conditions in past years. The results will help you decide how hot, cold, wet, or windy it might be!

Date:

Astronomy

May. 08, 2014 Rise Set
Actual Time 7:00 AM CDT 8:30 PM CDT
Civil Twilight 6:34 AM CDT 8:56 PM CDT
Nautical Twilight 6:03 AM CDT 9:27 PM CDT
Astronomical Twilight 5:31 AM CDT 9:59 PM CDT
Moon 2:58 PM CDT (5/8) 3:05 AM CDT (5/8)
Length of Visible Light 14h 22m
Length of Day
13h 30m
Waxing Gibbous, 65% of the Moon is Illuminated
May 8
Waxing Gibbous
May 14
Full
May 21
Last Quarter
May 28
New
Jun 5
First Quarter

Hourly Weather History & Observations

Time (CDT) Temp. Heat Index Dew Point Humidity Pressure Visibility Wind Dir Wind Speed Gust Speed Precip Events Conditions
12:53 AM 82.9 °F 83.3 °F 61.0 °F 47% 29.58 in - SE 15.0 mph 26.5 mph N/A   Unknown
1:53 AM 82.9 °F 83.2 °F 60.1 °F 46% 29.58 in - ESE 13.8 mph - N/A   Unknown
2:53 AM 82.0 °F 82.7 °F 61.0 °F 49% 29.57 in - SE 8.1 mph - N/A   Unknown
3:53 AM 80.1 °F 80.4 °F 57.0 °F 45% 29.61 in - North 9.2 mph - N/A   Unknown
4:53 AM 78.1 °F - 34.0 °F 20% 29.62 in - North 10.4 mph - N/A   Unknown
5:53 AM 79.0 °F - 16.0 °F 9% 29.65 in - NNW 10.4 mph - N/A   Unknown
6:53 AM 75.9 °F - 17.1 °F 11% 29.69 in - WNW 5.8 mph - N/A   Unknown
7:53 AM 79.0 °F - 14.0 °F 9% 29.71 in - NW 11.5 mph - N/A   Unknown
8:53 AM 82.9 °F - 15.1 °F 8% 29.73 in - West 9.2 mph - N/A   Unknown
9:53 AM 88.0 °F - 12.9 °F 6% 29.73 in - NNW 17.3 mph 23.0 mph N/A   Unknown
10:53 AM 89.1 °F - 14.0 °F 6% 29.75 in - North 9.2 mph - N/A   Unknown
11:53 AM 91.0 °F - 16.0 °F 6% 29.74 in - Calm Calm - N/A   Unknown
12:53 PM 91.9 °F - 23.0 °F 8% 29.73 in - SSW 11.5 mph 18.4 mph N/A   Unknown
1:53 PM 93.9 °F - 21.9 °F 7% 29.70 in - WSW 16.1 mph 20.7 mph N/A   Unknown
2:53 PM 95.0 °F - 19.0 °F 6% 29.68 in - WSW 19.6 mph 23.0 mph N/A   Unknown
3:25 PM 96.1 °F - 21.0 °F 7% 29.80 in - WSW 11.5 mph 26.5 mph N/A   Unknown
3:53 PM 98.1 °F - 19.0 °F 6% 29.66 in - SW 21.9 mph 29.9 mph N/A   Unknown
4:53 PM 97.0 °F - 18.0 °F 6% 29.65 in - SW 9.2 mph 24.2 mph N/A   Unknown
5:53 PM 96.1 °F - 18.0 °F 6% 29.63 in - SW 11.5 mph 20.7 mph N/A   Unknown
7:53 PM 95.0 °F - 21.0 °F 7% 29.64 in - WSW 10.4 mph - N/A   Unknown
8:53 PM 87.1 °F - 21.9 °F 9% 29.67 in - WNW 8.1 mph - N/A   Unknown
9:53 PM 84.0 °F - 23.0 °F 11% 29.68 in - NW 6.9 mph - N/A   Unknown
10:53 PM 80.1 °F - 23.0 °F 12% 29.74 in - ENE 9.2 mph - N/A   Unknown
11:53 PM 84.0 °F - 17.1 °F 8% 29.75 in - North 9.2 mph - N/A   Unknown